Regional Weather Roundup
Issued by NWS

Home | Current Version | Previous Version | Graphics & Text | Print | Product List | Glossary On
Versions: 1 2 3 4 5 6 7 8 9 10 11 12 13 14 15 16 17 18 19 20 21 22 23 24 25 26 27 28 29 30 31 32 33 34 35 36 37 38 39 40 41 42 43 44 45 46 47 48 49 50
000
ASUS43 KDTX 231801
RWRMI
MICHIGAN HOURLY REGIONAL WEATHER ROUNDUP
NATIONAL WEATHER SERVICE DETROIT/PONTIAC MI
200 PM EDT SUN APR 23 2017

NOTE: "FAIR" INDICATES FEW OR NO CLOUDS BELOW 12,000 FEET WITH NO
SIGNIFICANT WEATHER AND/OR OBSTRUCTION TO VISIBILITY.

MIZ047>049-052>055-059>063-066>070-074>076-081>083-231900-
SOUTHEAST LOWER MICHIGAN

CITY           SKY/WX    TMP DP  RH WIND       PRES   REMARKS
ADRIAN         SUNNY     63  35  35 SE3       30.08F
6HR MIN TEMP:  38; 6HR MAX TEMP:  65;

ALMA           SUNNY     67  31  26 NW8G20    30.07F
ANN ARBOR      SUNNY     65  33  30 SW6       30.07F
BAD AXE        SUNNY     66  27  23 NW8G18    30.06F
6HR MIN TEMP:  42; 6HR MAX TEMP:  66;

CARO           SUNNY     68  30  24 SW8       30.05F
DETROIT CITY   SUNNY     66  31  27 NW5       30.08F
6HR MIN TEMP:  42; 6HR MAX TEMP:  66;

DETROIT        MOSUNNY   66  33  29 CALM      30.08F
6HR MIN TEMP:  41; 6HR MAX TEMP:  66;

FLINT          SUNNY     65  26  23 W9        30.07F
6HR MIN TEMP:  43; 6HR MAX TEMP:  66;

GROSSE ILE     SUNNY     55  37  49 S9        30.08F
6HR MIN TEMP:  41; 6HR MAX TEMP:  56;

HILLSDALE      SUNNY     64  30  27 NW5       30.07F
HOWELL         SUNNY     66  23  19 W7        30.07F
6HR MIN TEMP:  42; 6HR MAX TEMP:  66;


CITY           SKY/WX    TMP DP  RH WIND       PRES   REMARKS
JACKSON        SUNNY     66  28  24 N8        30.08F
6HR MIN TEMP:  39; 6HR MAX TEMP:  67; 6HR PCP: TRACE;

LAMBERTVILLE   SUNNY     62  30  30 E5        30.09S
6HR MIN TEMP:  38; 6HR MAX TEMP:  62;

LANSING        SUNNY     67  28  23 VRB5      30.08F
6HR MIN TEMP:  41; 6HR MAX TEMP:  67;

LAPEER         FAIR      67  30  25 W9        30.07F
6HR MIN TEMP:  39; 6HR MAX TEMP:  67;

MASON          SUNNY     66  34  30 NW9       30.08F
MONROE         SUNNY     62  33  33 SE6       30.08F
6HR MIN TEMP:  39; 6HR MAX TEMP:  62;

PONTIAC        MOSUNNY   65  30  27 VRB3      30.06F
6HR MIN TEMP:  41; 6HR MAX TEMP:  67;

PORT HOPE        N/A     48  40  73 N16       30.07R
6HR MIN TEMP:  46; 6HR MAX TEMP:  66;

PORT HURON     SUNNY     66  32  28 SW6       30.07F
TRI CITIES     SUNNY     68  33  27 W10       30.06F
6HR MIN TEMP:  42; 6HR MAX TEMP:  68;

MIDLAND        FAIR      68  29  23 W13G20    30.04F
6HR MIN TEMP:  38; 6HR MAX TEMP:  69;

TROY           SUNNY     67  25  20 NW8       30.08F
SAGINAW HB     SUNNY     68  28  22 W13       30.06F
$$
MIZ043>046-050>051-056>058-064>065-071>073-077>080-231900-
SOUTHWEST LOWER MICHIGAN

CITY           SKY/WX    TMP DP  RH WIND       PRES   REMARKS
BATTLE CREEK   SUNNY     67  25  20 NW8       30.09F
6HR MIN TEMP:  38; 6HR MAX TEMP:  67;

BENTON HARBOR  SUNNY     60  26  27 NW7       30.11F
6HR MIN TEMP:  34; 6HR MAX TEMP:  60;

BIG RAPIDS     SUNNY     65  29  25 SW10G17   30.05F
6HR MIN TEMP:  34; 6HR MAX TEMP:  66;

COLDWATER      SUNNY     64  32  29 NE3       30.08F
6HR MIN TEMP:  37; 6HR MAX TEMP:  65;

FREMONT        FAIR      66  26  22 NW8       30.07F
HOLLAND        SUNNY     63  32  31 W8        30.10F
6HR MIN TEMP:  40; 6HR MAX TEMP:  63;

GRAND RAPIDS   SUNNY     66  31  27 W9G17     30.07F
6HR MIN TEMP:  38; 6HR MAX TEMP:  66;

IONIA          FAIR      67  31  26 W12       30.07F
6HR MIN TEMP:  41; 6HR MAX TEMP:  67;

KALAMAZOO      SUNNY     67  22  18 N7G16     30.08F
6HR MIN TEMP:  36; 6HR MAX TEMP:  68;

LUDINGTON      SUNNY     55  42  62 NW8       30.08F
6HR MIN TEMP:  47; 6HR MAX TEMP:  55;

MARSHALL       SUNNY     67  28  22 W5        30.07F
6HR MIN TEMP:  37; 6HR MAX TEMP:  68;

MOUNT PLEASANT SUNNY     67  31  25 W10       30.04F
6HR MIN TEMP:  43; 6HR MAX TEMP:  67;

MUSKEGON       SUNNY     59  30  33 W8        30.10F
6HR MIN TEMP:  37; 6HR MAX TEMP:  61;

SOUTH HAVEN    SUNNY     61  27  27 W5        30.10F
$$
MIZ016>042-231900-
NORTHERN LOWER MICHIGAN

CITY           SKY/WX    TMP DP  RH WIND       PRES   REMARKS
ALPENA         MOSUNNY   55  40  56 N17G23    30.09F
6HR MIN TEMP:  49; 6HR MAX TEMP:  56;

BEAVER ISLAND  CLOUDY    40  31  69 N7G18     30.15F WCI  35
6HR MIN TEMP:  38; 6HR MAX TEMP:  41;

BELLAIRE       MOSUNNY   50  36  57 N7        30.12S
6HR MIN TEMP:  36; 6HR MAX TEMP:  51;

CADILLAC       SUNNY     59  39  47 N12       30.05S
CHARLEVOIX     SUNNY     41  34  75 N10       30.18S
6HR MIN TEMP:  40; 6HR MAX TEMP:  42;

FRANKFORT      SUNNY     46  34  62 N14G20    30.11S
GAYLORD        PTSUNNY   56  36  47 VRB5      30.07F
6HR MIN TEMP:  46; 6HR MAX TEMP:  56;

GRAYLING       SUNNY     63  38  39 W12G20    30.06F
HARBOR SPRINGS PTSUNNY   45  35  67 SW6       30.12F
HOUGHTON LAKE  SUNNY     65  36  34 W13       30.05F
6HR MIN TEMP:  47; 6HR MAX TEMP:  65;

MANISTEE       SUNNY     49  39  68 NW14      30.08F
OSCODA         SUNNY     54  38  55 E12G17    30.07S
6HR MIN TEMP:  41; 6HR MAX TEMP:  70;

PELLSTON       CLOUDY    46  33  60 NW12      30.13F
6HR MIN TEMP:  43; 6HR MAX TEMP:  48;

ROGERS CITY    PTSUNNY   45  35  67 NW15      30.13S
TRAVERSE CITY  MOSUNNY   46  33  60 N16G23    30.13S
6HR MIN TEMP:  46; 6HR MAX TEMP:  52;

$$
MIZ007>008-015-231900-
EASTERN UPPER MICHIGAN

CITY           SKY/WX    TMP DP  RH WIND       PRES   REMARKS
KINROSS        CLOUDY    39  29  67 NW17      30.13F WCI  30
6HR MIN TEMP:  35; 6HR MAX TEMP:  40; 6HR PCP:  0.01;

MACKINAC ISLAN CLOUDY    41  32  70 NW7       30.14S
NEWBERRY       CLOUDY    33  26  76 N13       30.17R WCI  24
6HR MIN TEMP:  32; 6HR MAX TEMP:  36;

S. S. MARIE    MOSUNNY   43  31  62 NW15      30.12F
6HR MIN TEMP:  37; 6HR MAX TEMP:  43; 6HR PCP: TRACE;

MUNISING         N/A     34  22  61 N18       30.21S WCI  23
6HR MIN TEMP:  33; 6HR MAX TEMP:  36;

$$
MIZ004>006-011>014-085-231900-
CENTRAL UPPER MICHIGAN

CITY           SKY/WX    TMP DP  RH WIND       PRES   REMARKS
MANISTIQUE     CLOUDY    38  25  59 N14       30.17S WCI  30
6HR MIN TEMP:  35; 6HR MAX TEMP:  39;

ESCANABA       CLOUDY    39  28  64 NE12      30.17F WCI  32
6HR MIN TEMP:  37; 6HR MAX TEMP:  40; 6HR PCP: TRACE;

MENOMINEE      CLOUDY    41  33  73 E15       30.17F
6HR MIN TEMP:  40; 6HR MAX TEMP:  44;

SAWYER-GWINN   CLOUDY    32  25  74 NE13      30.13  WCI  22
$$
MIZ001>003-009>011-084-231900-
WESTERN UPPER MICHIGAN

CITY           SKY/WX    TMP DP  RH WIND       PRES   REMARKS
IRON MOUNTAIN  CLOUDY    39  28  64 NE5       30.15F
6HR MIN TEMP:  35; 6HR MAX TEMP:  40; 6HR PCP: TRACE;

HOUGHTON       CLOUDY    35  25  66 VRB3      30.20S
6HR MIN TEMP:  30; 6HR MAX TEMP:  35; 6HR PCP:  0.01;

COPPER HARBOR    N/A     33  23  66 NE9G18    30.24S WCI  25
6HR MIN TEMP:  32; 6HR MAX TEMP:  33;

IRONWOOD       CLOUDY    38  30  73 VRB3      30.17F
6HR MIN TEMP:  33; 6HR MAX TEMP:  38; 6HR PCP:  0.01;

$$

ABBREVIATIONS USED IN REMARKS
   TC - TEMPERATURE IN CELSIUS
  WCI - WIND CHILL INDEX
   HX - HEAT INDEX
  VSB - VISIBILITY





USA.gov is the U.S. government's official web portal to all federal, state and local government web resources and services.